EW7398 Weather Reports


Display with metric or nautical units.
time (UTC)temp
F
wind
direction
speed
MPH
gust
MPH
rain 1hr
in
rain 24hr
in
rain mn
in
humidity
%
barometer
mb
20211207191539 53 217 3.0 6.0 0.00 0.00 0.00 36 1013.9
20211207190123 53 182 4.0 8.0 0.00 0.00 0.00 37 1014.0
20211207184621 52 178 7.0 10.0 0.00 0.00 0.00 37 1014.1
20211207184503 52 212 6.0 10.0 0.00 0.00 0.00 37 1014.2
20211207183114 52 184 7.0 10.0 0.00 0.00 0.00 37 1014.4
20211207181635 52 199 7.0 11.0 0.00 0.00 0.00 37 1014.5
20211207174535 52 217 4.0 8.0 0.00 0.00 0.00 38 1014.4
20211207173027 51 191 5.0 9.0 0.00 0.00 0.00 39 1014.6
20211207171614 51 208 5.0 9.0 0.00 0.00 0.00 40 1014.6
20211207164559 50 207 4.0 8.0 0.00 0.00 0.00 42 1014.6
20211207163159 48 206 3.0 6.0 0.00 0.00 0.00 46 1014.4
20211207161545 48 212 4.0 7.0 0.00 0.00 0.00 46 1014.1
20211207160101 47 212 4.0 7.0 0.00 0.00 0.00 46 1014.1
20211207155125 46 211 4.0 6.0 0.00 0.00 0.00 48 1014.1
20211207153141 45 186 2.0 5.0 0.00 0.00 0.00 49 1013.9
20211207151549 44 193 2.0 5.0 0.00 0.00 0.00 50 1013.8
20211207150104 44 197 3.0 5.0 0.00 0.00 0.00 49 1013.9
20211207144630 44 178 2.0 4.0 0.00 0.00 0.00 49 1013.8
20211207143103 43 178 2.0 3.0 0.00 0.00 0.00 50 1013.9
20211207141530 44 178 2.0 5.0 0.00 0.00 0.00 49 1013.9
20211207140135 44 142 4.0 7.0 0.00 0.00 0.00 48 1013.7
20211207134603 44 175 5.0 6.0 0.00 0.00 0.00 48 1013.9
20211207133013 44 167 5.0 7.0 0.00 0.00 0.00 48 1013.8
20211207131615 44 165 4.0 6.0 0.00 0.00 0.00 47 1013.8
20211207130053 45 175 5.0 8.0 0.00 0.00 0.00 46 1013.8
20211207124614 45 192 6.0 8.0 0.00 0.00 0.00 46 1013.5
20211207123027 45 167 7.0 10.0 0.00 0.00 0.00 46 1013.4
20211207121648 45 169 5.0 9.0 0.00 0.00 0.00 45 1013.5
20211207120215 45 173 9.0 12.0 0.00 0.00 0.00 44 1013.6
20211207114647 45 168 7.0 9.0 0.00 0.00 0.00 44 1013.7
20211207113051 45 184 5.0 7.0 0.00 0.00 0.00 44 1014.0
20211207111553 45 167 3.0 5.0 0.00 0.00 0.00 43 1014.3
20211207110120 43 187 2.0 4.0 0.00 0.00 0.00 46 1014.5
20211207104605 43 187 1.0 2.0 0.00 0.00 0.00 45 1014.6
20211207103048 43 187 1.0 4.0 0.00 0.00 0.00 44 1014.7
20211207101606 43 189 3.0 6.0 0.00 0.00 0.00 44 1014.9
20211207100107 42 190 3.0 5.0 0.00 0.00 0.00 46 1015.1
20211207094516 41 190 3.0 5.0 0.00 0.00 0.00 50 1015.0
20211207093041 41 190 2.0 5.0 0.00 0.00 0.00 51 1015.2
20211207091557 41 198 1.0 3.0 0.00 0.00 0.00 51 1015.2
20211207084534 40 198 1.0 3.0 0.00 0.00 0.00 52 1015.4
20211207083030 40 198 1.0 3.0 0.00 0.00 0.00 51 1015.5
20211207081634 42 198 1.0 3.0 0.00 0.00 0.00 49 1015.6
20211207071517 44 183 3.0 5.0 0.00 0.00 0.00 48 1016.1
20211207070020 39 186 4.0 7.0 0.00 0.00 0.00 53 1016.0
20211207064647 39 142 1.0 4.0 0.00 0.00 0.00 51 1016.2
20211207063009 40 65 0.0 1.0 0.00 0.00 0.00 51 1016.6
20211207061549 41 67 1.0 5.0 0.00 0.00 0.00 47 1016.6
20211207054518 43 192 1.0 3.0 0.00 0.00 0.00 46 1016.7
20211207053108 44 193 2.0 4.0 0.00 0.00 0.00 44 1016.4
20211207051651 45 197 3.0 7.0 0.00 0.00 0.00 43 1016.8
20211207051502 45 213 3.0 6.0 0.00 0.00 0.00 43 1016.8
20211207044531 43 182 4.0 5.0 0.00 0.00 0.00 45 1016.7
20211207043120 44 170 4.0 6.0 0.00 0.00 0.00 44 1016.8
20211207041536 45 163 5.0 6.0 0.00 0.00 0.00 43 1016.9
20211207040115 45 183 5.0 7.0 0.00 0.00 0.00 43 1017.0
20211207034544 46 188 3.0 4.0 0.00 0.00 0.00 41 1017.3
20211207033047 47 184 3.0 5.0 0.00 0.00 0.00 40 1017.3
20211207031630 48 172 1.0 3.0 0.00 0.00 0.00 39 1017.5
20211207024515 48 172 2.0 3.0 0.00 0.00 0.00 39 1017.9
20211207023104 49 161 4.0 7.0 0.00 0.00 0.00 37 1017.7
20211207021715 49 194 3.0 6.0 0.00 0.00 0.00 38 1017.5
20211207014538 51 169 4.0 9.0 0.00 0.00 0.00 35 1017.7
20211207013008 52 169 3.0 7.0 0.00 0.00 0.00 34 1017.9
20211207011639 53 38 5.0 6.0 0.00 0.00 0.00 33 1017.6
20211207010114 54 27 4.0 9.0 0.00 0.00 0.00 32 1017.6
20211207004556 55 360 3.0 6.0 0.00 0.00 0.00 29 1017.4
20211207003156 58 19 3.0 9.0 0.00 0.00 0.00 23 1017.3
20211207001535 59 30 5.0 10.0 0.00 0.00 0.00 22 1017.3
20211207000123 61 32 4.0 11.0 0.00 0.00 0.00 22 1017.1
20211206234614 62 35 7.0 12.0 0.00 0.00 0.00 21 1017.1
20211206233132 63 34 5.0 10.0 0.00 0.00 0.00 21 1017.3
20211206231523 64 35 5.0 11.0 0.00 0.00 0.00 20 1017.3
20211206224614 64 25 8.0 13.0 0.00 0.00 0.00 21 1017.5
20211206223122 64 22 12.0 19.0 0.00 0.00 0.00 21 1017.4
20211206221549 65 19 11.0 17.0 0.00 0.00 0.00 21 1017.3
20211206220114 66 20 10.0 16.0 0.00 0.00 0.00 20 1017.5
20211206214623 65 17 10.0 17.0 0.00 0.00 0.00 20 1017.6
20211206213127 66 15 9.0 17.0 0.00 0.00 0.00 20 1017.4
20211206211536 66 13 10.0 15.0 0.00 0.00 0.00 20 1017.6
20211206210019 66 13 7.0 15.0 0.00 0.00 0.00 20 1017.8
20211206204559 67 12 7.0 11.0 0.00 0.00 0.00 19 1018.2
20211206203138 67 14 3.0 12.0 0.00 0.00 0.00 20 1018.5
20211206201544 66 13 5.0 10.0 0.00 0.00 0.00 20 1018.7
20211206200130 64 117 2.0 10.0 0.00 0.00 0.00 21 1019.0
20211206194614 64 136 3.0 8.0 0.00 0.00 0.00 21 1019.3
20211206193006 62 144 3.0 7.0 0.00 0.00 0.00 22 1019.8